COSMOS 970 DEB

基本信息
目录编号:
64984
目录名称:
COSMOS 970 DEB
国际标识:
1977-121CV
轨道中心:
EARTH
物体状态:
在轨
发射日期:
1977-12-21 UTC
轨道信息
数据来源: 国际轨道数据
星历时间: 2026-09-04T13:47:29+0800
半长轴: 7403.722km
偏心率: 0.0128856
轨道倾角: 65.827°
近地点辐角: 241.596°
升交点赤经: 244.158°
平近点角: 117.205°
近地点: 930.183km
远地点: 1120.987km
周期: 105.666分钟
每日圈数: 13.627859
详细信息
发射场:
TTMTR
轨道高度:
LEO
数据来源:
AOE Integration Group
参考系:
TEME
时间系统:
UTC
历元类型:
SGP4
2D轨道图
3D轨道图
轨道高度分析图
轨道倾角分析图
轨道综合分析图
查看轨道综合分析图